Hanford, CA

6:10 PM PST on January 21, 2017 (GMT -0800)
Hanford

Weather History for KHJO - October, 2011

Change the Weather History Date:

Wednesday, October 5, 2011

  Actual Average Record
Temperature  
Mean Temperature 62 °F 68 °F  
Max Temperature 68 °F 84 °F 95 °F (2014)
Min Temperature 55 °F 51 °F 39 °F (1957)
Degree Days  
Heating Degree Days 3    
Month to date heating degree days 3  
Since 1 July heating degree days 3  
Cooling Degree Days 0    
Month to date cooling degree days 18  
Year to date cooling degree days 1596  
Growing Degree Days 10 (Base 50)    
Moisture  
Dew Point 49 °F    
Average Humidity 64    
Maximum Humidity 93    
Minimum Humidity 34    
Precipitation  
Precipitation 0.45 in 0.01 in 0.47 in (2011)
Month to date precipitation 0.46 0.02  
Year to date precipitation 6.68 6.99  
Since 1 July precipitation 0.50  
Snow  
Snow 0.00 in - - ()
Month to date snowfall 0.0  
Since 1 July snowfall 0.0  
Since 1 September snowfall 0.0  
Snow Depth 0.00 in    
Sea Level Pressure  
Sea Level Pressure 29.80 in    
Wind  
Wind Speed 10 mph (NW)    
Max Wind Speed 17 mph    
Max Gust Speed 93 mph    
Visibility 8 miles    
Events Rain    
T = Trace of Precipitation, MM = Missing Value Source: NWS Daily Summary

Daily Weather History Graph

Daily Weather History Graph

Search for Another Location

Airport or City:

Trip Planner

Search our weather history database for the weather conditions in past years. The results will help you decide how hot, cold, wet, or windy it might be!

Date:

Astronomy

Oct. 05, 2011 Rise Set
Actual Time 6:56 AM PDT 6:36 PM PDT
Civil Twilight 6:31 AM PDT 7:02 PM PDT
Nautical Twilight 6:01 AM PDT 7:31 PM PDT
Astronomical Twilight 5:31 AM PDT 8:01 PM PDT
Moon 3:10 PM PDT (10/5) 12:58 AM PDT (10/5)
Length of Visible Light 12h 31m
Length of Day
11h 39m
Waxing Gibbous, 67% of the Moon is Illuminated
Oct 5
Waxing Gibbous
Oct 11
Full
Oct 19
Last Quarter
Oct 26
New
Nov 2
First Quarter

Hourly Weather History & Observations

Time (PDT) Temp. Dew Point Humidity Pressure Visibility Wind Dir Wind Speed Gust Speed Precip Events Conditions
12:53 AM 60.1 °F 46.9 °F 62% 29.83 in 10.0 mi SSW 9.2 mph - 0.00 in   Overcast
1:53 AM 57.0 °F 50.0 °F 77% 29.84 in 10.0 mi South 6.9 mph - 0.01 in Rain Light Rain
2:53 AM 55.9 °F 51.1 °F 84% 29.81 in 3.0 mi SSE 5.8 mph - 0.08 in Rain Heavy Rain
4:53 AM 55.0 °F 51.1 °F 86% 29.75 in 10.0 mi East 10.4 mph - 0.02 in   Overcast
5:53 AM 55.9 °F 52.0 °F 87% 29.72 in 9.0 mi East 9.2 mph - 0.01 in Rain Light Rain
6:53 AM 55.9 °F 53.1 °F 90% 29.73 in 4.0 mi ESE 6.9 mph - 0.08 in Rain Light Rain
8:05 AM 57.2 °F 53.6 °F 88% 29.73 in 2.5 mi SSE 8.1 mph - 0.01 in Rain Light Rain
8:19 AM 57.2 °F 55.4 °F 94% 29.75 in 1.2 mi West 4.6 mph - 0.07 in Rain Heavy Rain
8:26 AM 57.2 °F 55.4 °F 94% 29.76 in 1.5 mi WSW 5.8 mph - 0.10 in Rain Rain
8:32 AM 57.2 °F 55.4 °F 94% 29.75 in 3.0 mi West 5.8 mph - 0.10 in Rain Light Rain
8:45 AM 57.2 °F 55.4 °F 94% 29.76 in 7.0 mi West 5.8 mph - 0.11 in Rain Light Rain
8:53 AM 57.0 °F 55.0 °F 93% 29.77 in 10.0 mi West 6.9 mph - 0.11 in Rain Light Rain
9:41 AM 57.2 °F 53.6 °F 88% 29.78 in 8.0 mi NNW 16.1 mph 93.2 mph 0.03 in Rain Light Rain
9:53 AM 57.0 °F 54.0 °F 89% 29.79 in 10.0 mi West 5.8 mph - 0.03 in   Overcast
10:53 AM 60.1 °F 53.1 °F 78% 29.82 in 10.0 mi Calm Calm - N/A   Partly Cloudy
12:53 PM 66.9 °F 48.0 °F 51% 29.82 in 10.0 mi NNW 10.4 mph - N/A   Mostly Cloudy
1:09 PM 64.4 °F 46.4 °F 52% 29.81 in 10.0 mi North - - N/A   Mostly Cloudy
1:53 PM 66.0 °F 45.0 °F 47% 29.82 in 10.0 mi NNW 16.1 mph 21.9 mph 0.00 in   Partly Cloudy
3:53 PM 66.9 °F 37.9 °F 34% 29.80 in 10.0 mi NW 17.3 mph - N/A   Clear
4:53 PM 66.0 °F 39.0 °F 37% 29.79 in 10.0 mi NNW 11.5 mph - N/A   Clear
5:53 PM 64.0 °F 43.0 °F 46% 29.79 in 10.0 mi North 4.6 mph - N/A   Clear
6:53 PM 61.0 °F 43.0 °F 52% 29.81 in 10.0 mi NNW 16.1 mph 20.7 mph N/A   Clear
7:53 PM 57.9 °F 45.0 °F 62% 29.83 in 10.0 mi North 8.1 mph - N/A   Scattered Clouds
8:53 PM 57.0 °F 44.1 °F 62% 29.86 in 10.0 mi North 6.9 mph - 0.00 in   Overcast
9:53 PM 57.0 °F 45.0 °F 64% 29.88 in 10.0 mi North 8.1 mph - 0.00 in   Mostly Cloudy
10:53 PM 54.0 °F 48.0 °F 80% 29.89 in 10.0 mi North 4.6 mph - 0.02 in   Overcast
11:53 PM 54.0 °F 48.0 °F 80% 29.90 in 10.0 mi North 5.8 mph - N/A   Mostly Cloudy